Вернуться в каталог

ONEWEB-0569

АктивенСвязьPO
NORAD 55148·PAYLOAD·🇬🇧 United Kingdom

Запущен Jan 10, 2023 с Cape Canaveral Space Force Station

Loading…

Ближайшие Пролёты (ближайшие 24 часа)

TLE

СвежийSource: CelesTrak SupGP

Эпоха: Sep 14, 2026, 12:55 UTC

1 55148C 23004J   26257.53833750  .00003566  00000+0  97771-2 0  2577
2 55148  87.8918 302.4501 0001617  70.1804  31.7229 13.13463546    17

Отслеживайте ONEWEB-0569 в реальном времени с AllMySat

Download on the App Store